Location: Gönnheim
(49.4488°N, 8.2383°E)
Time: 00:55:54
(UTC+00:00)

SPOT 5 - Pass Details

Date: 19 May 2025
Orbit: 620 x 803 km, 98.0° (Epoch: 22 June)

Event Time Altitude Azimuth Distance (km) Brightness Sun altitude
Rises 19:45:47 0° 172° (S) 2,921 5.6 -5.5°
Reaches altitude 10° 19:48:00 10° 175° (S) 2,003 4.8 -5.8°
Maximum altitude 19:52:19 66° 258° (WSW) 681 3.0 -6.3°
Drops below altitude 10° 19:56:37 10° 341° (NNW) 2,000 6.3 -6.8°
Sets 19:58:50 0° 344° (NNW) 2,917 7.1 -7.1°
